Stuttgart, AR

11:15 AM CDT on June 25, 2017 (GMT -0500)
Stuttgart Municipal

Weather History for KSGT - March, 2014

Change the Weather History Date:

Thursday, March 27, 2014

  Actual Average Record
Temperature  
Mean Temperature 57 °F -  
Max Temperature 64 °F 63 °F 82 °F (2012)
Min Temperature 50 °F 46 °F 33 °F (2002)
Degree Days  
Heating Degree Days 8    
Growing Degree Days 7 (Base 50)    
Moisture  
Dew Point 46 °F    
Average Humidity 67    
Maximum Humidity 88    
Minimum Humidity 41    
Precipitation  
Precipitation 1.00 in - - ()
Sea Level Pressure  
Sea Level Pressure 29.91 in    
Wind  
Wind Speed 17 mph (South)    
Max Wind Speed 25 mph    
Max Gust Speed 32 mph    
Visibility 10 miles    
Events Thunderstorm    
Averages and records for this station are not official NWS values.
T = Trace of Precipitation, MM = Missing Value Source: NWS Daily Summary

Daily Weather History Graph

Daily Weather History Graph

Search for Another Location

Airport or City:

Trip Planner

Search our weather history database for the weather conditions in past years. The results will help you decide how hot, cold, wet, or windy it might be!

Date:

Astronomy

Mar. 27, 2014 Rise Set
Actual Time 7:00 AM CDT 7:23 PM CDT
Civil Twilight 6:34 AM CDT 7:48 PM CDT
Nautical Twilight 6:05 AM CDT 8:18 PM CDT
Astronomical Twilight 5:35 AM CDT 8:48 PM CDT
Moon 4:43 AM CDT (3/27) 4:18 PM CDT (3/27)
Length of Visible Light 13h 13m
Length of Day
12h 23m
Waning Crescent, 13% of the Moon is Illuminated
Mar 27
Waning Crescent
Mar 30
New
Apr 7
First Quarter
Apr 15
Full
Apr 22
Last Quarter

Hourly Weather History & Observations

Time (CDT) Temp. Dew Point Humidity Pressure Visibility Wind Dir Wind Speed Gust Speed Precip Events Conditions
12:15 AM 53.6 °F 30.2 °F 41% 30.06 in 10.0 mi North - - N/A   Overcast
12:35 AM 53.6 °F 32.0 °F 44% 30.05 in 10.0 mi North - - N/A   Overcast
12:55 AM 53.6 °F 32.0 °F 44% 30.05 in 10.0 mi North - - N/A   Overcast
1:15 AM 53.6 °F 32.0 °F 44% 30.05 in 10.0 mi North - - N/A   Overcast
1:35 AM 53.6 °F 32.0 °F 44% 30.04 in 10.0 mi North - - N/A   Overcast
1:55 AM 53.6 °F 32.0 °F 44% 30.04 in 10.0 mi South 17.3 mph - N/A   Overcast
2:15 AM 53.6 °F 32.0 °F 44% 30.03 in 10.0 mi South 17.3 mph - N/A   Overcast
2:35 AM 53.6 °F 32.0 °F 44% 30.02 in 10.0 mi South 17.3 mph - N/A   Overcast
2:55 AM 53.6 °F 32.0 °F 44% 30.01 in 10.0 mi South 17.3 mph - N/A   Overcast
3:15 AM 53.6 °F 32.0 °F 44% 30.01 in 10.0 mi South 16.1 mph - N/A   Overcast
3:35 AM 53.6 °F 32.0 °F 44% 30.00 in 10.0 mi South 16.1 mph - N/A   Overcast
3:55 AM 51.8 °F 35.6 °F 54% 30.00 in 10.0 mi South 18.4 mph - N/A   Overcast
4:15 AM 51.8 °F 33.8 °F 50% 29.99 in 10.0 mi South 17.3 mph - N/A   Overcast
4:35 AM 51.8 °F 33.8 °F 50% 30.00 in 10.0 mi South 18.4 mph - N/A   Overcast
4:55 AM 51.8 °F 33.8 °F 50% 30.00 in 10.0 mi South 19.6 mph 26.5 mph N/A   Overcast
5:15 AM 51.8 °F 33.8 °F 50% 29.99 in 10.0 mi South 23.0 mph - N/A   Overcast
5:35 AM 51.8 °F 35.6 °F 54% 30.00 in 10.0 mi South 19.6 mph - N/A   Overcast
5:55 AM 51.8 °F 35.6 °F 54% 30.00 in 10.0 mi South 19.6 mph - N/A   Overcast
6:15 AM 51.8 °F 35.6 °F 54% 29.99 in 10.0 mi South 23.0 mph - N/A   Overcast
6:35 AM 51.8 °F 35.6 °F 54% 29.98 in 10.0 mi SSE 19.6 mph 25.3 mph N/A   Overcast
6:55 AM 50.0 °F 35.6 °F 58% 29.99 in 10.0 mi South 18.4 mph - N/A   Overcast
7:15 AM 50.0 °F 35.6 °F 58% 29.99 in 10.0 mi SSE 17.3 mph 24.2 mph N/A   Overcast
7:35 AM 50.0 °F 37.4 °F 62% 30.00 in 10.0 mi SSE 15.0 mph - N/A   Overcast
7:55 AM 50.0 °F 37.4 °F 62% 30.00 in 10.0 mi SSE 17.3 mph - N/A   Overcast
8:15 AM 51.8 °F 37.4 °F 58% 30.00 in 10.0 mi SSE 17.3 mph 21.9 mph N/A   Overcast
8:35 AM 51.8 °F 37.4 °F 58% 30.00 in 10.0 mi SSE 18.4 mph - N/A   Overcast
8:55 AM 51.8 °F 37.4 °F 58% 29.99 in 10.0 mi SSE 19.6 mph 24.2 mph N/A   Overcast
9:15 AM 51.8 °F 39.2 °F 62% 29.99 in 10.0 mi SSE 18.4 mph 23.0 mph N/A   Overcast
9:35 AM 51.8 °F 39.2 °F 62% 29.98 in 10.0 mi SSE 23.0 mph 27.6 mph N/A   Overcast
9:55 AM 53.6 °F 39.2 °F 58% 29.98 in 10.0 mi SSE 19.6 mph 25.3 mph N/A   Overcast
10:15 AM 53.6 °F 42.8 °F 67% 29.98 in 10.0 mi SSE 19.6 mph 24.2 mph N/A   Overcast
10:35 AM 53.6 °F 42.8 °F 67% 29.97 in 10.0 mi SSE 20.7 mph - N/A   Overcast
10:55 AM 55.4 °F 42.8 °F 63% 29.96 in 10.0 mi South 25.3 mph 29.9 mph N/A   Overcast
11:15 AM 57.2 °F 44.6 °F 63% 29.95 in 10.0 mi South 23.0 mph 27.6 mph N/A   Overcast
11:35 AM 57.2 °F 46.4 °F 67% 29.95 in 10.0 mi SSE 20.7 mph - N/A   Overcast
11:55 AM 57.2 °F 46.4 °F 67% 29.93 in 10.0 mi South 21.9 mph 25.3 mph N/A   Overcast
12:15 PM - - N/A% 29.91 in 10.0 mi South 25.3 mph 32.2 mph N/A   Overcast
12:35 PM 62.6 °F 48.2 °F 59% 29.91 in 10.0 mi South 25.3 mph 31.1 mph N/A   Overcast
12:55 PM 62.6 °F 50.0 °F 63% 29.87 in 10.0 mi SSE 20.7 mph 26.5 mph N/A   Overcast
1:15 PM 62.6 °F 50.0 °F 63% 29.87 in 10.0 mi SSE 20.7 mph 29.9 mph N/A   Overcast
1:35 PM 64.4 °F 51.8 °F 64% 29.86 in 10.0 mi South 19.6 mph 29.9 mph N/A   Overcast
1:55 PM 64.4 °F 51.8 °F 64% 29.83 in 10.0 mi SSE 23.0 mph 29.9 mph N/A   Overcast
2:15 PM 62.6 °F 53.6 °F 72% 29.81 in 10.0 mi South 23.0 mph 26.5 mph N/A   Overcast
2:35 PM 62.6 °F 53.6 °F 72% 29.81 in 10.0 mi South 20.7 mph - N/A   Overcast
2:55 PM 62.6 °F 55.4 °F 77% 29.83 in 10.0 mi SSW 10.4 mph - 0.03 in Thunderstorm Thunderstorm
3:15 PM 59.0 °F 55.4 °F 88% 29.80 in 2.0 mi South 17.3 mph - 0.53 in Thunderstorm Thunderstorm
3:35 PM 59.0 °F 55.4 °F 88% 29.80 in 9.0 mi South 4.6 mph - 0.66 in Thunderstorm Thunderstorm
3:55 PM 60.8 °F 55.4 °F 82% 29.79 in 10.0 mi South 5.8 mph - 0.67 in   Overcast
4:15 PM 60.8 °F 57.2 °F 88% 29.78 in 10.0 mi SSW 3.5 mph - N/A   Overcast
4:35 PM 59.0 °F 55.4 °F 88% 29.79 in 9.0 mi Calm Calm - N/A   Overcast
4:55 PM 60.8 °F 55.4 °F 82% 29.79 in 9.0 mi WSW 3.5 mph - 0.01 in Thunderstorm Overcast
5:15 PM 62.6 °F 57.2 °F 82% 29.80 in 10.0 mi WSW 11.5 mph - 0.07 in Thunderstorm Thunderstorm
5:35 PM 62.6 °F 57.2 °F 82% 29.79 in 10.0 mi South 13.8 mph - 0.12 in Thunderstorm Overcast
5:55 PM 62.6 °F 57.2 °F 82% 29.79 in 10.0 mi SSW 13.8 mph - 0.17 in Thunderstorm Thunderstorm
6:15 PM 62.6 °F 57.2 °F 82% 29.79 in 9.0 mi South 17.3 mph 20.7 mph 0.08 in   Overcast
6:35 PM 62.6 °F 59.0 °F 88% 29.80 in 10.0 mi SSW 13.8 mph - 0.12 in   Overcast
6:55 PM 62.6 °F 57.2 °F 82% 29.81 in 10.0 mi SSW 15.0 mph - 0.12 in   Overcast
7:15 PM 62.6 °F 57.2 °F 82% 29.81 in 10.0 mi South 11.5 mph - N/A   Overcast
7:35 PM 62.6 °F 57.2 °F 82% 29.82 in 10.0 mi South 12.7 mph - N/A   Overcast
7:55 PM 62.6 °F 57.2 °F 82% 29.82 in 10.0 mi South 17.3 mph - N/A   Overcast
8:15 PM 62.6 °F 57.2 °F 82% 29.82 in 10.0 mi South 16.1 mph - N/A   Overcast
8:35 PM 62.6 °F 57.2 °F 82% 29.82 in 10.0 mi South 20.7 mph 24.2 mph N/A   Overcast
8:55 PM 62.6 °F 57.2 °F 82% 29.82 in 10.0 mi South 19.6 mph - N/A   Overcast
9:15 PM 62.6 °F 57.2 °F 82% 29.84 in 10.0 mi South 15.0 mph - N/A   Overcast
9:35 PM 62.6 °F 57.2 °F 82% 29.85 in 10.0 mi South 13.8 mph - N/A   Overcast
9:55 PM 62.6 °F 57.2 °F 82% 29.85 in 10.0 mi South 17.3 mph - N/A   Overcast
10:15 PM 62.6 °F 57.2 °F 82% 29.86 in 10.0 mi South 17.3 mph - N/A   Overcast
10:35 PM 62.6 °F 57.2 °F 82% 29.87 in 10.0 mi South 13.8 mph - N/A   Overcast
10:55 PM 62.6 °F 57.2 °F 82% 29.87 in 10.0 mi South 11.5 mph - N/A   Overcast
11:15 PM 62.6 °F 57.2 °F 82% 29.85 in 10.0 mi SSE 12.7 mph - N/A   Overcast
11:35 PM 60.8 °F 57.2 °F 88% 29.84 in 10.0 mi South 17.3 mph 21.9 mph N/A   Mostly Cloudy
11:55 PM 60.8 °F 57.2 °F 88% 29.83 in 10.0 mi South 18.4 mph - N/A   Mostly Cloudy